Location: Street
(51.1247°N, 2.7429°W)
Time: 09:31:22
(UTC+00:00)

Tiros 1 - Pass Details

Date: 01 December 2020
Orbit: 630 x 663 km, 48.4° (Epoch: 21 January)

Event Time Altitude Azimuth Distance (km) Brightness Sun altitude
Rises 14:19:20 0° 211° (SSW) 2,984 12.9 10.8°
Reaches altitude 10° 14:22:04 10° 197° (SSW) 2,075 11.7 10.6°
Maximum altitude 14:25:48 23° 146° (SE) 1,409 9.3 10.2°
Drops below altitude 10° 14:29:32 10° 95° (E) 2,078 9.5 9.9°
Sets 14:32:16 0° 81° (E) 2,990 10.1 9.7°
